This is the latest recevied weather packets stored in our database for station/object OK1VCF-8. If no packets are shown the sender has not sent any weather packets the latest 10 day(s).
| Time | Temp. | Humidity | Pressure | Rain* | Wind** | Luminosity | Snow |
|---|---|---|---|---|---|---|---|
| 1777548068 | 11.67° C | 32% | 1032.2 hPa | - | - | - | - |
| 1777547625 | 11.67° C | 31% | 1032.1 hPa | - | - | - | - |
| 1777547186 | 12.22° C | 32% | 1032.2 hPa | - | - | - | - |
| 1777546746 | 12.22° C | 30% | 1032.2 hPa | - | - | - | - |
| 1777546307 | 11.67° C | 31% | 1032.5 hPa | - | - | - | - |
| 1777545867 | 11.11° C | 30% | 1032.6 hPa | - | - | - | - |
| 1777545430 | 11.11° C | 31% | 1032.6 hPa | - | - | - | - |
| 1777544991 | 11.11° C | 31% | 1032.8 hPa | - | - | - | - |
| 1777544554 | 11.11° C | 30% | 1032.8 hPa | - | - | - | - |
| 1777544114 | 11.11° C | 32% | 1032.8 hPa | - | - | - | - |
| 1777543672 | 11.11° C | 32% | 1033 hPa | - | - | - | - |
| 1777543066 | 10.56° C | 32% | 1033 hPa | - | - | - | - |
| 1777542628 | 10° C | 33% | 1033 hPa | - | - | - | - |
| 1777542189 | 10° C | 34% | 1033 hPa | - | - | - | - |
| 1777541751 | 10° C | 33% | 1033.1 hPa | - | - | - | - |
| 1777541312 | 10° C | 33% | 1033 hPa | - | - | - | - |
| 1777540872 | 10.56° C | 34% | 1033 hPa | - | - | - | - |
| 1777540433 | 10.56° C | 34% | 1033.1 hPa | - | - | - | - |
| 1777539993 | 10.56° C | 34% | 1033.1 hPa | - | - | - | - |
| 1777539554 | 10° C | 35% | 1033.7 hPa | - | - | - | - |
| 1777539115 | 10° C | 34% | 1033.2 hPa | - | - | - | - |
| 1777538674 | 10° C | 34% | 1033.2 hPa | - | - | - | - |
| 1777538235 | 10° C | 36% | 1033.4 hPa | - | - | - | - |
| 1777537794 | 9.44° C | 36% | 1033.5 hPa | - | - | - | - |
| 1777537355 | 10° C | 35% | 1033.4 hPa | - | - | - | - |
* Rain since midnight (hover to see other rain measurements)
** Current wind speed in m/s (hover to see current wind gust speed)